Location: Haulchin
(50.3172°N, 3.4360°E)
Time: 02:24:16
(UTC+00:00)

ADEOS II - Pass Details

Date: 23 May 2024
Orbit: 795 x 798 km, 98.7° (Epoch: 17 June)

Event Time Altitude Azimuth Distance (km) Brightness Sun altitude
Rises 02:51:59 0° 11° (N) 3,314 6.4 -7.7°
Reaches altitude 10° 02:54:22 10° 7° (N) 2,379 5.4 -7.4°
Maximum altitude 02:59:27 52° 292° (WNW) 992 2.5 -6.9°
Drops below altitude 10° 03:04:29 10° 218° (SW) 2,363 3.9 -6.3°
Enters shadow 03:05:09 - 216° (SW) 2,619 4.1 -6.2°
